AirNav   TITAN Aviation Fuels
 
 1772 users online  

KRCP Rooks County Regional Airport
Stockton, Kansas, USA

GOING TO STOCKTON?


FAA INFORMATION EFFECTIVE 08 SEPTEMBER 2022

Location

FAA Identifier: RCP
Lat/Long: 39-20-47.7000N 099-18-16.7000W
39-20.795000N 099-18.278333W
39.3465833,-99.3046389
(estimated)
Elevation: 1999 ft. / 609.3 m (surveyed)
Variation: 05E (2010)
From city: 5 miles S of STOCKTON, KS
Time zone: UTC -5 (UTC -6 during Standard Time)
Zip code: 67669

Airport Operations

Airport use: Open to the public
Activation date: 02/2012
Control tower: no
ARTCC: DENVER CENTER
FSS: WICHITA FLIGHT SERVICE STATION
NOTAMs facility: RCP (NOTAM-D service available)
Attendance: UNATTENDED
Wind indicator: lighted
Segmented circle: yes
Lights: ACTVT REIL RWY 18/36; MIRL RWY 18/36 - CTAF.

Airport Communications

CTAF: 122.9
WX AWOS-AV: 120.075 (785-425-7042)
  • APCH/DEP CTL SVC PRVDD BY DENVER ARTCC (ZDV) ON FREQS 132.7/226.675 (HILL CITY RCAG).

Nearby radio navigation aids

VOR radial/distance  VOR name  Freq  Var
HYSr348/30.0HAYS VORTAC110.4010E

Airport Services

Fuel available: 100LL JET-A
100LL:SELF-SVC FUEL AVBL WITH CREDIT CARD.

Runway Information

Runway 18/36

Dimensions: 5000 x 75 ft. / 1524 x 23 m
Surface: concrete, in good condition
Weight bearing capacity: 
PCN 11 /R/C/X/U
Single wheel: 30.0
Double wheel: 30.0
Runway edge lights: medium intensity
RUNWAY 18  RUNWAY 36
Latitude: 39-21.207193N39-20.383777N
Longitude: 099-18.268040W099-18.290068W
Elevation: 1998.9 ft.1998.9 ft.
Traffic pattern: leftleft
Declared distances: TORA:5000 TODA:5000 ASDA:5000 LDA:5000TORA:5000 TODA:5000 ASDA:5000 LDA:5000
Markings: nonprecisionnonprecision
Visual slope indicator: 4-light PAPI on left (3.00 degrees glide path)4-light PAPI on left (3.00 degrees glide path)
Runway end identifier lights: yesyes
Touchdown point: yes, no lightsyes, no lights

Airport Ownership and Management from official FAA records

Ownership: Publicly-owned
Owner: ROOKS COUNTY AIRPORT COMMISSSION
115 NORTH WALNUT
STOCKTON, KS 67669
Phone 785-425-6881
Manager: ROGER HRABE, ROOKS CO. ECONOMIC DVL
1721 P ROAD
STOCKTON, KS 67669
Phone 785-425-6881

Airport Operational Statistics

Aircraft based on the field: 8
Single engine airplanes: 8
    

Additional Remarks

FOR CD CTC DENVER ARTCC AT 303-651-4257.

Instrument Procedures

NOTE: All procedures below are presented as PDF files. If you need a reader for these files, you should download the free Adobe Reader.

NOT FOR NAVIGATION. Please procure official charts for flight.
FAA instrument procedures published for use from 8 September 2022 at 0901Z to 6 October 2022 at 0900Z.

 
IAPs - Instrument Approach Procedures
RNAV (GPS) RWY 18   download (203KB)
RNAV (GPS) RWY 36   download (204KB)
NOTE: Special Take-Off Minimums/Departure Procedures apply   download (148KB)

Other nearby airports with instrument procedures:

KPHG - Phillipsburg Municipal Airport (23 nm N)
KHLC - Hill City Municipal Airport (25 nm W)
KHYS - Hays Regional Airport (30 nm S)
0H1 - Trego Wakeeney Airport (34 nm SW)
K82 - Smith Center Municipal Airport (34 nm NE)
 
Loc | Ops | Rwys | IFR | FBO | Links
Com | Nav | Svcs | Stats | Notes

AirBoss

 
Aerial photo
WARNING: Photo may not be current or correct
Aerial photo of KRCP (Rooks County Regional Airport)
Taken in the Summer of 2012
looking north.

Do you have a better or more recent aerial photo of Rooks County Regional Airport that you would like to share? If so, please send us your photo.

 
Airport distance calculator
Flying to Rooks County Regional Airport? Find the distance to fly.

From to KRCP

Sunrise and sunset
Times for 26-Sep-2022
 Local
(UTC-5)
 Zulu
(UTC)
Morning civil twilight07:0312:03
Sunrise07:3012:30
Sunset19:2800:28
Evening civil twilight19:5400:54

Current date and time
Zulu (UTC)  26-Sep-2022 19:24:44
Local (UTC-5)  26-Sep-2022 14:24:44
 
METAR
KHLC 
25nm W 
261853Z AUTO 15007KT 10SM CLR 26/06 A3018 RMK AO2 SLP209 T02610056
KHYS 
30nm S 
261856Z AUTO 16005KT 10SM CLR 24/04 A3019 RMK AO2 SLP214 T02440044 $
KK82 
34nm NE 
261855Z AUTO 00000KT 10SM 24/00 A3019 RMK AO2
KRSL 
37nm SE 
261853Z AUTO VRB05KT 10SM CLR 24/03 A3018 RMK AO2 SLP213 T02440033
KNRN 
41nm NW 
261855Z AUTO 19006KT 10SM CLR 25/04 A3021 RMK AO2
TAF
KHYS 
30nm S 
261720Z 2618/2718 VRB06KT P6SM SKC FM270000 13007KT P6SM SKC
KRSL 
37nm SE 
261725Z 2618/2718 12007KT P6SM SKC
NOTAMs
Click for the latest NOTAMs
NOTAMs are issued by the DoD/FAA and will open in a separate window not controlled by AirNav.

 

 
 

FBO, Fuel Providers, and Aircraft Ground Support

  
 Business Name 
 
 Contact 
 
 Services / Description 
 
Fuel Prices
 
Comments
  
Rooks County Regional Airport 785-425-6881
[web site]
[email]
Airport management, Aviation fuel, Aircraft parking (ramp or tiedown), Hangars, Passenger terminal and lounge, Courtesy transportation, Internet access, Restrooms, Showers
 
Courtesy car  
 
More info about Rooks County Regional Airport
Phillips 66
100LL Jet A
SS $6.79 $5.69 
 Updated 29-Jun-2022
 
   3 read write
SS=Self service
Update Fuel Prices
 

Would you like to see your business listed on this page?

 If your business provides an interesting product or service to pilots, flight crews, aircraft, or users of the Rooks County Regional Airport, you should consider listing it here.  To start the listing process, click on the button below
 
Add a business
 

Other Pages about Rooks County Regional Airport

www.rookscountyairport.com
 
Update a link
 
Copyright © AirNav, LLC. All rights reserved. Privacy Policy  Contact